Weather History for KADF - February, 2014

Change the Weather History Date:

Tuesday, February 25, 2014

  Actual Average Record
Temperature  
Mean Temperature 48 °F -  
Max Temperature 56 °F - - ()
Min Temperature 41 °F - - ()
Degree Days  
Heating Degree Days 16    
Moisture  
Dew Point 33 °F    
Average Humidity 60    
Maximum Humidity 86    
Minimum Humidity 39    
Precipitation  
Precipitation 0.06 in - - ()
Sea Level Pressure  
Sea Level Pressure 30.17 in    
Wind  
Wind Speed 7 mph (NE)    
Max Wind Speed 10 mph    
Max Gust Speed -    
Visibility 10 miles    
Events Rain , Thunderstorm    
Averages and records for this station are not official NWS values.
T = Trace of Precipitation, MM = Missing Value Source: NWS Daily Summary

Daily Weather History Graph

Daily Weather History Graph

Search for Another Location

Airport or City:

Trip Planner

Search our weather history database for the weather conditions in past years. The results will help you decide how hot, cold, wet, or windy it might be!

Date:

Astronomy

Feb. 25, 2014 Rise Set
Actual Time 6:45 AM CST 6:05 PM CST
Civil Twilight 6:20 AM CST 6:30 PM CST
Nautical Twilight 5:51 AM CST 6:59 PM CST
Astronomical Twilight 5:22 AM CST 7:28 PM CST
Moon 3:33 AM CST (2/25) 2:18 PM CST (2/25)
Length of Visible Light 12h 09m
Length of Day
11h 19m
Waning Crescent, 18% of the Moon is Illuminated
Feb 25
Waning Crescent
Mar 1
New
Mar 8
First Quarter
Mar 16
Full
Mar 23
Last Quarter

Hourly Weather History & Observations

Time (CST) Temp. Windchill Dew Point Humidity Pressure Visibility Wind Dir Wind Speed Gust Speed Precip Events Conditions
12:22 AM 46.4 °F 42.9 °F 30.2 °F 53% 30.13 in 10.0 mi NE 6.9 mph - 0.00 in Rain Light Rain
12:56 AM 45.0 °F 40.6 °F 32.0 °F 60% 30.18 in 10.0 mi NNE 8.1 mph - 0.00 in   Overcast
1:17 AM 44.6 °F 40.2 °F 30.2 °F 57% 30.15 in 10.0 mi North 8.1 mph - N/A   Overcast
1:30 AM 44.6 °F 40.2 °F 32.0 °F 61% 30.15 in 10.0 mi NNE 8.1 mph - 0.00 in Rain , Thunderstorm Light Thunderstorms and Rain
1:56 AM 43.0 °F 38.8 °F 32.9 °F 68% 30.19 in 10.0 mi NNE 6.9 mph - 0.00 in   Overcast
2:56 AM 43.9 °F 39.3 °F 32.0 °F 63% 30.20 in 10.0 mi NNE 8.1 mph - N/A   Overcast
3:56 AM 43.0 °F 38.8 °F 32.9 °F 68% 30.20 in 10.0 mi NNE 6.9 mph - N/A   Mostly Cloudy
4:05 AM 42.8 °F 40.1 °F 33.8 °F 70% 30.16 in 10.0 mi NE 4.6 mph - N/A   Mostly Cloudy
4:56 AM 43.0 °F 39.5 °F 32.9 °F 68% 30.21 in 10.0 mi NE 5.8 mph - N/A   Mostly Cloudy
5:12 AM 42.8 °F 40.1 °F 33.8 °F 70% 30.16 in 10.0 mi ENE 4.6 mph - N/A   Overcast
5:56 AM 43.0 °F 39.5 °F 32.9 °F 68% 30.22 in 10.0 mi NE 5.8 mph - N/A   Overcast
6:56 AM 43.0 °F 41.3 °F 32.9 °F 68% 30.22 in 10.0 mi East 3.5 mph - N/A   Overcast
7:56 AM 43.0 °F 40.3 °F 31.1 °F 63% 30.24 in 10.0 mi NE 4.6 mph - N/A   Overcast
8:56 AM 45.0 °F 41.2 °F 31.1 °F 58% 30.23 in 10.0 mi ENE 6.9 mph - N/A   Scattered Clouds
9:56 AM 47.8 °F - 32.0 °F 54% 30.24 in 10.0 mi North 10.4 mph - N/A   Scattered Clouds
10:56 AM 50.9 °F - 32.9 °F 50% 30.22 in 10.0 mi Variable 6.9 mph - N/A   Partly Cloudy
11:56 AM 55.9 °F - 31.1 °F 39% 30.19 in 7.0 mi East 9.2 mph - N/A   Partly Cloudy
12:56 PM 56.8 °F - 32.0 °F 39% 30.17 in 10.0 mi East 8.1 mph - N/A   Partly Cloudy
1:56 PM 55.9 °F - 32.9 °F 42% 30.12 in 10.0 mi ENE 6.9 mph - N/A   Mostly Cloudy
2:56 PM 54.9 °F - 34.0 °F 45% 30.12 in 10.0 mi NE 5.8 mph - N/A   Mostly Cloudy
3:56 PM 54.9 °F - 32.9 °F 43% 30.10 in 10.0 mi East 5.8 mph - N/A   Overcast
4:56 PM 52.9 °F - 32.9 °F 47% 30.12 in 10.0 mi ENE 6.9 mph - N/A   Overcast
5:56 PM 50.9 °F - 32.0 °F 48% 30.13 in 10.0 mi ENE 6.9 mph - 0.00 in Rain Light Rain
6:56 PM 48.9 °F - 32.9 °F 54% 30.14 in 10.0 mi NE 4.6 mph - 0.00 in   Overcast
7:56 PM 47.8 °F - 32.9 °F 56% 30.14 in 10.0 mi ENE 5.8 mph - N/A   Overcast
8:56 PM 46.9 °F - 34.9 °F 63% 30.15 in 10.0 mi NE 6.9 mph - 0.00 in   Overcast
9:37 PM 42.8 °F 38.6 °F 37.4 °F 81% 30.13 in 4.0 mi NE 6.9 mph - 0.04 in Rain Rain
9:56 PM 41.9 °F 37.5 °F 36.9 °F 82% 30.18 in 10.0 mi ENE 6.9 mph - 0.04 in   Mostly Cloudy
10:56 PM 41.9 °F 38.2 °F 36.9 °F 82% 30.17 in 5.0 mi ENE 5.8 mph - 0.01 in Rain Rain
11:56 PM 41.9 °F - 37.9 °F 86% 30.22 in 10.0 mi Calm Calm - 0.01 in Rain Light Rain